Weather in Novouralskoe

Russia / Omsk Oblast     54°14′48″N   74°12′38″E
temp.,
°C
wind,
m/s
gust,
m/s
humid.,
%
clouds,
%
prec.,
mm/h
press.,
hPa
HPBL,
m
12 april, mon
mon1200:000ssw239699 0.0 1039183
03:00−2sw2298100 0.0 103836
06:00−2sw359699 0.0 103777
09:00−1sw369668 0.0 1036159
12:00+1sw3710090 0.0 1035165
15:00+1wsw48100100 0.0 1034177
18:00+1w4810069 0.0 1033216
21:000wnw3899100 0.0 1033196
13 april, tue
tue1300:00+1nw49100100 0.9 1033199
03:00+1nnw39100100 0.1 1034218
06:00+1n5898100 0.1 1036352
09:00+1n479592 0.0 1038354
12:00+2nw38100100 0.0 1039210
15:00+3nw359962 0.0 1040226
18:00+4wnw36917 0.0 1039123
21:00+1w36930 0.0 103986
14 april, wed
wed1400:00+1w36925 0.0 103992
03:000w37905 0.0 1038105
06:000wsw48905 0.0 1037120
09:00+3wsw5108694 0.0 1036284
12:00+6wsw61271100 0.0 1034484
15:00+9w7126349 0.0 1031669
18:00+9w61165100 0.0 1030346
21:00+4w488276 0.0 1029126
15 april, thu
thu1500:00+4wnw348982 0.0 102952
03:00+4w339134 0.0 102821
06:00+4wsw339211 0.0 102822
09:00+7wsw35875 0.0 1027161
12:00+12wsw457543 0.0 1026529
15:00+15wsw566652 0.0 10241027
18:00+15w576499 0.0 1022321
21:00+12wsw35815 0.0 102173
16 april, fri
fri1600:00+10wsw348814 0.0 102060
03:00+8wsw34905 0.0 101949
06:00+7wsw34905 0.0 101844
09:00+11wsw35815 0.0 1017212
12:00+15wsw45615 0.0 1015950
15:00+17wsw55492 0.0 10131502
18:00+17wsw45495 0.0 10111535
21:00+13wsw22648 0.0 101012